Location: Lecco
(45.8566°N, 9.3977°E)
Time: 04:07:47
(UTC+02:00)

Transit 4A - Pass Details

Date: 14 August 2020
Orbit: 863 x 982 km, 66.8° (Epoch: 23 September)

Event Time Altitude Azimuth Distance (km) Brightness Sun altitude
Rises 09:48:12 0° 209° (SSW) 3,481 10.8 34.5°
Reaches altitude 10° 09:50:39 10° 209° (SSW) 2,561 10.2 34.9°
Maximum altitude 09:56:36 86° 122° (ESE) 925 8.7 35.9°
Drops below altitude 10° 10:02:48 10° 34° (NE) 2,660 10.6 36.9°
Sets 10:05:23 0° 34° (NE) 3,626 11.1 37.3°
